Date String (YYYY-MM-DD hh:mm:ss) UTC,Instrument flags,Ambient pressure (hPa),Sample flow (lpm),Bypass flow (lpm),Sample temperature (°C),Ambient temperature (°C),ASC tube jacket temperature (°C),LED temperature (°C),Box temperature (°C),Sample RH (%),Span deviation,Mass concentration (μg/m³),Mass concentration (μg/m³),Mass concentration (μg/m³)
DateTimeUTC,F1_M11,P_M11,Q1_M11,Q2_M11,T1_M11,T2_M11,T3_M11,T4_M11,T5_M11,U1_M11,ZSPAN_M11,X0_M11,X2_M11,X1_M11
2022-01-25 22:00:00,,0830.4,5.00,0.00,23.0,22.4,00.0,31.8,24.8,11.3,0000.0,0003.20,0002.97,0002.80
2022-01-25 22:01:00,,0830.4,4.99,0.00,23.0,22.4,00.0,31.8,24.8,11.3,0000.0,0003.23,0002.99,0002.80
2022-01-25 22:02:00,,0830.4,5.00,0.00,23.0,22.4,00.0,31.8,24.9,11.2,0000.0,0003.22,0003.00,0002.81
2022-01-25 22:03:00,,0830.3,5.00,0.00,23.0,22.4,00.0,31.8,24.9,11.0,0000.0,0003.21,0003.00,0002.81
2022-01-25 22:04:00,,0830.3,5.00,0.00,23.0,22.4,00.0,31.8,24.9,11.0,0000.0,0003.21,0003.01,0002.81
2022-01-25 22:05:00,,0830.4,5.00,0.00,23.0,22.4,00.0,31.8,24.9,11.0,0000.0,0003.16,0003.00,0002.80
2022-01-25 22:06:00,,0830.4,5.00,0.00,23.0,22.5,00.0,31.8,24.9,11.0,0000.0,0003.12,0002.98,0002.79
2022-01-25 22:07:00,,0830.5,5.00,0.00,23.0,22.5,00.0,31.8,24.9,11.0,0000.0,0003.09,0002.96,0002.77
2022-01-25 22:08:00,,0830.5,5.00,0.00,23.1,22.5,00.0,31.9,24.9,11.1,0000.0,0003.04,0002.95,0002.78
2022-01-25 22:09:00,,0830.4,5.00,0.00,23.1,22.5,00.0,31.9,24.9,11.1,0000.0,0003.05,0002.96,0002.79
2022-01-25 22:10:00,,0830.5,5.00,0.00,23.1,22.5,00.0,31.9,25.0,11.1,0000.0,0003.01,0002.96,0002.81
2022-01-25 22:11:00,,0830.5,5.00,0.00,23.1,22.5,00.0,31.9,25.0,11.1,0000.0,0003.00,0002.95,0002.81
2022-01-25 22:12:00,,0830.5,5.00,0.00,23.1,22.5,00.0,31.9,25.0,11.1,0000.0,0002.96,0002.95,0002.82
2022-01-25 22:13:00,,0830.5,5.00,0.00,23.1,22.6,00.0,31.9,25.0,11.1,0000.0,0002.95,0002.95,0002.83
2022-01-25 22:14:00,,0830.5,5.01,0.00,23.1,22.6,00.0,31.9,25.0,11.1,0000.0,0002.97,0002.97,0002.84
2022-01-25 22:15:00,,0830.5,4.99,0.00,23.2,22.6,00.0,31.9,25.0,11.1,0000.0,0002.90,0002.95,0002.86
2022-01-25 22:16:00,,0830.5,5.02,0.00,23.2,22.6,00.0,31.9,25.0,11.1,0000.0,0002.90,0002.95,0002.87
2022-01-25 22:17:00,,0830.5,5.00,0.00,23.2,22.6,00.0,32.0,25.1,11.1,0000.0,0002.93,0002.98,0002.89
2022-01-25 22:18:00,,0830.5,4.99,0.00,23.2,22.6,00.0,32.0,25.1,11.1,0000.0,0002.96,0003.00,0002.90
2022-01-25 22:19:00,,0830.5,5.00,0.00,23.2,22.6,00.0,32.0,25.1,11.1,0000.0,0003.11,0003.03,0002.91
2022-01-25 22:20:00,,0830.5,4.99,0.00,23.2,22.6,00.0,32.0,25.1,11.0,0000.0,0003.11,0003.02,0002.92
2022-01-25 22:21:00,,0830.5,5.00,0.00,23.2,22.7,00.0,32.0,25.1,11.0,0000.0,0003.11,0003.02,0002.91
2022-01-25 22:22:00,,0830.5,5.00,0.00,23.3,22.7,00.0,32.0,25.1,10.9,0000.0,0003.13,0003.02,0002.90
2022-01-25 22:23:00,,0830.5,5.00,0.00,23.3,22.7,00.0,32.0,25.1,10.9,0000.0,0003.13,0003.01,0002.90
2022-01-25 22:24:00,,0830.6,5.00,0.00,23.3,22.7,00.0,32.1,25.1,10.9,0000.0,0003.10,0003.00,0002.90
2022-01-25 22:25:00,,0830.6,4.99,0.00,23.3,22.7,00.0,32.1,25.2,10.9,0000.0,0003.08,0002.99,0002.90
2022-01-25 22:26:00,,0830.6,5.02,0.00,23.3,22.7,00.0,32.1,25.2,10.8,0000.0,0003.07,0002.98,0002.88
2022-01-25 22:27:00,,0830.6,4.99,0.00,23.3,22.7,00.0,32.1,25.2,10.8,0000.0,0003.06,0002.97,0002.88
2022-01-25 22:28:00,,0830.6,4.99,0.00,23.3,22.7,00.0,32.1,25.2,10.7,0000.0,0003.02,0002.94,0002.85
2022-01-25 22:29:00,,0830.6,5.00,0.00,23.4,22.7,00.0,32.1,25.2,10.6,0000.0,0002.95,0002.89,0002.82
2022-01-25 22:30:00,,0830.5,5.00,0.00,23.4,22.7,00.0,32.1,25.2,10.7,0000.0,0002.77,0002.83,0002.78
2022-01-25 22:31:00,,0830.6,5.01,0.00,23.4,22.8,00.0,32.1,25.2,10.5,0000.0,0002.72,0002.79,0002.74
2022-01-25 22:32:00,,0830.6,4.99,0.00,23.4,22.8,00.0,32.2,25.3,10.5,0000.0,0002.71,0002.77,0002.72
2022-01-25 22:33:00,,0830.6,5.00,0.00,23.4,22.8,00.0,32.2,25.3,10.6,0000.0,0002.71,0002.77,0002.73
2022-01-25 22:34:00,,0830.6,5.00,0.00,23.4,22.8,00.0,32.2,25.3,10.6,0000.0,0002.70,0002.76,0002.71
2022-01-25 22:35:00,,0830.6,5.00,0.00,23.4,22.8,00.0,32.2,25.3,10.6,0000.0,0002.86,0002.78,0002.70
2022-01-25 22:36:00,,0830.6,5.00,0.00,23.4,22.8,00.0,32.2,25.3,10.6,0000.0,0002.87,0002.77,0002.70
2022-01-25 22:37:00,,0830.6,5.00,0.00,23.5,22.8,00.0,32.2,25.3,10.6,0000.0,0002.92,0002.77,0002.69
2022-01-25 22:38:00,,0830.6,5.00,0.00,23.5,22.9,00.0,32.2,25.4,10.6,0000.0,0002.98,0002.77,0002.68
2022-01-25 22:39:00,,0830.6,5.00,0.00,23.5,22.8,00.0,32.2,25.3,10.5,0000.0,0003.03,0002.79,0002.69
2022-01-25 22:40:00,,0830.6,5.01,0.00,23.5,22.9,00.0,32.3,25.4,10.5,0000.0,0003.05,0002.80,0002.70
2022-01-25 22:41:00,,0830.6,5.00,0.00,23.5,22.9,00.0,32.3,25.4,10.5,0000.0,0003.06,0002.81,0002.71
2022-01-25 22:42:00,,0830.6,4.99,0.00,23.5,22.9,00.0,32.3,25.4,10.5,0000.0,0003.06,0002.82,0002.71
2022-01-25 22:43:00,,0830.5,5.00,0.00,23.5,22.9,00.0,32.3,25.4,10.4,0000.0,0003.06,0002.82,0002.70
2022-01-25 22:44:00,,0830.5,5.01,0.00,23.5,22.9,00.0,32.3,25.4,10.3,0000.0,0003.01,0002.77,0002.64
2022-01-25 22:45:00,,0830.6,5.01,0.00,23.5,22.9,00.0,32.3,25.4,10.2,0000.0,0002.95,0002.72,0002.58
2022-01-25 22:46:00,,0830.5,5.00,0.00,23.5,22.9,00.0,32.3,25.4,10.2,0000.0,0002.79,0002.64,0002.51
2022-01-25 22:47:00,,0830.5,4.99,0.00,23.5,22.9,00.0,32.3,25.4,10.3,0000.0,0002.71,0002.59,0002.46
2022-01-25 22:48:00,,0830.6,5.00,0.00,23.5,22.8,00.0,32.3,25.3,10.2,0000.0,0002.65,0002.55,0002.42
2022-01-25 22:49:00,,0830.6,5.00,0.00,23.5,22.8,00.0,32.3,25.3,10.3,0000.0,0002.54,0002.51,0002.37
2022-01-25 22:50:00,,0830.5,5.00,0.00,23.5,22.8,00.0,32.3,25.4,10.2,0000.0,0002.47,0002.44,0002.31
2022-01-25 22:51:00,,0830.5,5.00,0.00,23.5,22.8,00.0,32.3,25.4,10.2,0000.0,0002.42,0002.40,0002.27
2022-01-25 22:52:00,,0830.5,4.99,0.00,23.5,22.8,00.0,32.3,25.3,10.0,0000.0,0002.37,0002.34,0002.22
2022-01-25 22:53:00,,0830.6,5.00,0.00,23.5,22.8,00.0,32.3,25.4,10.1,0000.0,0002.39,0002.32,0002.18
2022-01-25 22:54:00,,0830.6,5.00,0.00,23.5,22.8,00.0,32.3,25.4,10.2,0000.0,0002.46,0002.33,0002.16
2022-01-25 22:55:00,,0830.6,5.01,0.00,23.5,22.8,00.0,32.3,25.4,10.1,0000.0,0002.44,0002.33,0002.17
2022-01-25 22:56:00,,0830.6,4.99,0.00,23.5,22.8,00.0,32.3,25.3,10.1,0000.0,0002.50,0002.36,0002.18
2022-01-25 22:57:00,,0830.6,5.01,0.00,23.5,22.8,00.0,32.3,25.3,10.2,0000.0,0002.49,0002.36,0002.21
2022-01-25 22:58:00,,0830.5,4.99,0.00,23.5,22.7,00.0,32.3,25.3,10.1,0000.0,0002.49,0002.37,0002.22
2022-01-25 22:59:00,,0830.5,5.00,0.00,23.4,22.6,00.0,32.3,25.2,10.2,0000.0,0002.48,0002.37,0002.23
